Location: Nebula Knoll Observatory
(43.6666°N, 71.0000°W)
Time: 14:49:46
(UTC-04:00)

Daily predictions for brighter satellites

Satellite Brightness Start Highest point End
(mag) Time Altitude Azimuth Time Altitude Azimuth Time Altitude Azimuth
H-2A R/B 2.2 21:01:13 10° SSE 21:05:45 86° ENE 21:10:17 10° NNW
Cosmos 1707 Rocket 4.0 21:01:51 10° N 21:06:05 47° ENE 21:10:18 10° SSE
SPOT 5 3.1 21:01:55 10° SSE 21:06:27 54° ENE 21:11:17 10° N
Cosmos 2333 Rocket 3.2 21:02:46 10° N 21:08:02 35° NE 21:13:17 10° ESE
Cosmos 2298 Rocket 4.3 21:03:07 10° S 21:08:15 50° ESE 21:13:23 10° NNE
ARGOS 4.2 21:04:00 10° SE 21:08:39 30° ENE 21:13:17 10° N
CZ-4B R/B 4.5 21:04:18 10° NE 21:08:50 29° E 21:13:16 10° SSE
Cosmos 2315 Rocket 4.0 21:02:44 10° N 21:08:57 72° E 21:15:08 10° SSE
USA 186 4.1 21:08:05 10° WSW 21:09:14 13° W 21:10:26 10° WNW
Cosmos 1666 Rocket 4.1 21:07:16 10° SSE 21:11:22 40° E 21:15:32 10° NNE
Cosmos 2297 Rocket 3.7 21:11:08 10° SE 21:14:40 17° E 21:18:12 10° ENE
Cosmos 2219 Rocket 2.6 21:10:31 10° NNW 21:15:57 50° ENE 21:21:23 10° SE
Cosmos 1455 4.2 21:15:48 10° NNE 21:18:09 15° ENE 21:20:30 10° ESE
NOSS 0 Rocket 4.4 21:13:44 10° NNW 21:19:45 51° ENE 21:25:34 11° SE
COSMOS 2428 2.8 21:14:26 10° NNW 21:20:09 81° WSW 21:25:50 10° SSE
Cosmos 1726 2.4 21:17:02 10° N 21:20:45 51° E 21:24:26 10° SSE
OTV 4 2.1 21:19:31 10° SSW 21:21:36 17° SSE 21:23:12 12° SE
Lacrosse 4 Rocket 3.5 21:25:27 10° N 21:28:33 18° NE 21:31:41 10° E
Meteor 1-4 Rocket 3.0 21:25:50 10° N 21:29:29 47° ENE 21:32:34 13° SSE
Cosmos 2058 3.0 21:27:28 10° S 21:31:34 83° W 21:35:42 10° N
Cosmos 2151 4.0 21:28:23 10° SSW 21:32:27 48° WNW 21:36:34 10° N
COSMOS 2455 4.1 21:27:54 10° NNW 21:33:14 31° NE 21:38:31 10° ESE
Cosmos 1745 Rocket 4.4 21:32:42 10° SSE 21:38:33 45° E 21:44:22 10° NNE
NOSS 3-1 (A) 3.4 21:32:40 10° SSW 21:38:34 83° ESE 21:45:09 10° NE
Terra 3.3 21:35:28 11° ESE 21:38:55 23° ENE 21:42:37 10° NNE
H-2A R/B 3.3 21:34:47 12° ESE 21:39:00 29° ENE 21:43:39 10° N
Cosmos 1898 Rocket 3.4 21:34:35 10° SSW 21:39:46 82° ESE 21:45:01 10° NNE
Cosmos 1980 4.0 21:34:46 10° NNW 21:40:20 56° ENE 21:44:58 15° SE
Cosmos 858 Rocket 4.4 21:36:50 10° SSW 21:42:02 78° ESE 21:47:15 10° NNE
MetOp-B 4.2 21:42:15 10° S 21:47:36 80° WSW 21:53:00 10° NNW
Cosmos 1939 Rocket 4.5 21:44:30 10° SSW 21:47:58 30° W 21:51:27 10° NNW
Cosmos 2219 4.3 21:44:46 10° SW 21:50:19 49° WNW 21:55:55 10° NNE
Tiangong 1 0.9 21:47:27 10° WSW 21:50:32 68° S 21:53:20 12° E
SPOT 1/Viking Rocket 3.5 21:46:53 13° SSE 21:51:28 81° ENE 21:56:39 10° NNW
Cosmos 2237 Rocket 2.4 21:46:25 10° NNW 21:52:06 64° ENE 21:56:27 17° SE
OAO 2 Rocket 4.2 21:51:11 10° WSW 21:55:53 32° S 21:59:04 17° SE
Cosmos 2150 Rocket 4.4 21:50:31 10° SSW 21:55:58 73° WNW 22:01:28 10° NNE
Cosmos 2082 3.8 21:54:10 10° S 21:59:44 56° ESE 22:05:19 10° NNE
Cosmos 2360 Rocket 4.5 21:56:35 10° WNW 22:00:21 18° W 22:04:06 10° SW
Sich 1 3.4 21:56:01 10° SSW 22:00:24 68° W 22:04:48 10° N
ATLAS 2AS CENTAUR R/B 3.1 21:53:36 10° S 22:00:48 53° ESE 22:08:33 10° NE
Cosmos 1869 4.1 21:57:40 10° N 22:01:29 38° ENE 22:03:36 22° SE
Cosmos 1271 Rocket 2.9 21:58:40 10° NNW 22:02:32 71° W 22:05:32 16° S
Cosmos 1626 2.6 22:02:07 22° SSE 22:04:07 42° E 22:07:41 10° NNE
Cosmos 1862 Rocket 3.8 22:01:05 10° N 22:05:22 54° E 22:07:54 22° SSE
CARTOSAT-1 4.3 22:04:59 21° SE 22:07:25 40° ENE 22:11:28 10° N
NOAA 11 4.2 22:03:22 16° SSE 22:07:45 89° ENE 22:13:15 10° NNW
YAOGAN 6 3.4 22:04:58 14° S 22:07:57 47° W 22:11:26 10° NNW
Cosmos 1633 Rocket 3.6 22:03:55 10° SSW 22:08:13 59° W 22:12:33 10° N
Iridium 2 3.6 22:05:33 18° S 22:08:22 78° E 22:12:14 10° N
ATLAS 3B R/B 3.1 22:01:24 10° NNW 22:08:23 56° NE 22:13:27 17° ESE
ERBS 2.4 22:06:48 10° SW 22:10:19 81° NW 22:13:48 10° NE
Cosmos 2242 Rocket 4.2 22:08:55 10° NNW 22:13:19 56° W 22:17:06 14° S
CZ-4 R/B 3.8 22:09:27 10° NNE 22:14:24 82° ESE 22:18:52 12° SSW
IGS 5A 4.1 22:14:27 24° SE 22:16:30 42° ENE 22:20:27 10° N
CZ-4C R/B 2.9 22:16:16 29° SSE 22:17:52 73° ENE 22:21:22 10° N
Cosmos 1703 3.7 22:14:44 11° SSW 22:18:30 61° W 22:22:23 10° N
USA 245 3.8 22:21:00 20° SW 22:21:54 26° W 22:23:52 10° NW
Cosmos 192 4.3 22:19:59 10° NNW 22:24:56 89° ENE 22:27:44 26° SSE
SAR-Lupe-2 4.1 22:24:12 30° ESE 22:25:27 43° ENE 22:28:53 10° N
CZ-4C R/B 4.3 22:21:45 10° NNW 22:27:30 28° NE 22:33:48 10° E
Cosmos 2227 Rocket 2.3 22:25:55 10° SSW 22:31:34 81° WNW 22:37:17 10° NNE
Cosmos 1937 Rocket 4.5 22:28:53 10° SW 22:33:55 48° WNW 22:38:57 10° N
DMSP B5D2-2 4.1 22:31:24 10° NNE 22:36:34 61° E 22:39:28 26° S
Aureole 2 Rocket 4.2 22:38:18 10° NNE 22:40:44 19° ENE 22:41:29 18° E
Okean 1-7 3.8 22:43:38 10° N 22:47:37 36° ENE 22:48:46 30° ESE
SL-16 R/B 2.2 22:42:08 10° NNW 22:47:51 79° ENE 22:50:40 31° SSE
ARGOS 4.2 22:44:45 15° SSW 22:48:45 39° W 22:53:46 10° NNW
Cosmos 2333 Rocket 3.2 22:47:02 10° NW 22:52:19 38° WSW 22:55:43 20° SSW
Cosmos 1455 3.3 22:50:30 10° NNW 22:54:03 37° W 22:55:49 23° SW
Cosmos 2297 Rocket 2.4 22:52:25 10° SSW 22:58:03 71° WNW 23:03:44 10° NNE
Cosmos 2084 Rocket 4.4 23:00:03 27° E 23:00:03 27° E 23:02:27 10° ENE
Cosmos 2219 Rocket 3.8 22:55:06 10° NW 22:59:34 25° WSW 23:03:06 14° SSW
NOSS 2-3 (C) 4.0 23:00:19 31° S 23:02:38 61° ESE 23:08:13 10° NE
SeaSat 1 3.8 23:00:35 18° E 23:03:16 30° NE 23:07:33 10° N
Cosmos 2251 Rocket 4.4 22:58:29 10° N 23:03:30 40° ENE 23:05:45 27° ESE
Cosmos 1703 Rocket 3.5 23:02:34 10° N 23:06:58 84° W 23:08:18 44° S
Cosmos 44 Rocket 3.4 23:04:46 32° S 23:07:03 63° ESE 23:12:14 10° NE
Lacrosse 4 Rocket 1.7 23:03:17 10° NW 23:07:41 63° WSW 23:08:55 43° S
Cosmos 1269 Rocket 4.3 23:05:08 10° NNW 23:10:22 59° WSW 23:12:32 34° S
Cosmos 1933 3.6 23:08:34 10° NNW 23:12:37 63° W 23:13:41 44° SSW
Terra 2.7 23:14:22 27° SSW 23:16:24 42° W 23:20:56 10° NNW
H-2A R/B 3.1 23:15:25 24° SSW 23:18:13 41° W 23:23:22 10° NNW
COSMOS 2455 3.2 23:13:36 10° NW 23:19:26 53° WSW 23:21:50 33° S
Cosmos 1603 4.0 23:16:32 10° NNW 23:22:10 60° ENE 23:24:29 35° SE
Cosmos 1340 Rocket 3.9 23:23:54 29° E 23:23:54 29° E 23:27:06 10° NNE
NOSS 2-3 (D) 3.9 23:21:10 28° SSW 23:23:52 86° SE 23:29:37 10° NE
Cosmos 1048 Rocket 4.5 23:21:18 10° NNW 23:26:32 53° WSW 23:28:25 36° SSW
Tiangong 1 2.8 23:23:59 10° W 23:25:23 24° W 23:25:23 24° W
Cosmos 1125 Rocket 4.2 23:23:43 16° SW 23:27:48 52° WNW 23:33:00 10° NNE
Cosmos 2074 Rocket 4.1 23:25:48 38° SSE 23:28:16 65° E 23:34:30 10° NNE
Cosmos 158 Rocket 3.9 23:23:50 10° NNW 23:29:08 86° ENE 23:30:39 47° SSE
CZ-4B R/B 3.3 23:29:56 20° ENE 23:30:01 20° ENE 23:32:32 10° NNE
Cosmos 2221 Rocket 4.2 23:25:48 10° NNW 23:30:13 50° W 23:31:33 37° SW
Cosmos 1709 Rocket 4.5 23:27:43 21° SSW 23:31:42 54° WNW 23:37:41 10° N
Cosmos 2237 Rocket 4.1 23:31:38 10° NW 23:35:36 20° W 23:38:17 14° SW
Cosmos 389 Rocket 2.9 23:34:40 10° NNW 23:38:10 54° W 23:38:11 54° W
Cosmos 372 Rocket 4.2 23:36:14 31° SW 23:38:45 70° WNW 23:43:59 10° NNE
Cosmos 1932 4.5 23:40:26 10° NW 23:46:49 73° WSW 23:49:04 42° SSE
Cosmos 1892 2.9 23:49:55 58° ENE 23:49:55 58° ENE 23:53:26 10° NNE
H-2A R/B 3.1 23:47:41 10° NNE 23:51:47 43° E 23:51:48 43° E
GEOS 3 Rocket 4.3 23:49:14 26° ESE 23:51:53 49° NE 23:56:52 10° NNW
ATLAS 2AS CENTAUR R/B 4.1 23:44:44 10° WSW 23:52:02 45° NW 23:59:48 10° NNE
Helios 1A Rocket 4.4 23:52:17 10° NE 23:55:24 25° E 23:55:24 25° E
